Wind_Speed
3 3 3 3 2 1 2 3 6 8 9 9 8 7 8 7 4 3 4 6 6 7 8 8 9 10 11 11 12 12 13 14 15 15 15 14 14 12 10 8 7 6 4 3 3 3 4 4 6
2 2 1 1 1 1 2 3 5 7 7 7 7 6 7 7 4 3 4 5 5 6 6 7 8 8 9 9 10 10 11 11 13 14 14 14 14 13 12 10 7 6 4 3 2 3 3 4 5
3 2 2 3 4 3 2 2 4 6 6 6 6 6 6 6 4 2 3 4 4 5 5 6 7 7 7 7 7 7 8 9 10 11 12 13 14 14 13 11 9 7 5 3 1 1 2 3 4
3 3 3 3 3 2 1 2 3 5 5 5 5 5 4 4 3 2 1 2 3 4 4 5 5 6 6 5 4 4 5 6 7 8 9 11 12 14 13 12 10 8 6 4 2 0 2 2 3
1 2 4 3 2 1 1 1 3 4 4 4 4 4 4 4 2 1 0 1 3 3 4 4 4 5 5 4 3 2 2 3 4 5 7 8 10 11 12 12 11 9 7 5 3 1 1 2 2
2 3 4 2 1 1 1 2 2 3 3 3 3 3 3 3 3 1 0 1 3 4 4 4 3 4 4 4 3 1 0 1 3 4 4 5 7 8 10 10 10 10 9 8 6 3 2 2 1
6 4 3 4 3 2 2 2 3 2 2 2 3 3 3 3 3 2 2 1 2 4 5 5 5 4 4 4 3 2 2 2 3 4 4 5 5 6 7 8 9 9 10 10 9 7 5 3 2
9 8 7 7 6 5 5 5 5 5 4 4 4 4 4 3 2 2 3 2 2 4 6 6 6 6 5 5 4 4 4 4 5 5 6 6 6 6 6 6 7 8 9 10 10 9 7 5 4
11 10 9 8 8 8 8 8 9 9 8 7 6 6 6 6 4 2 3 4 3 4 6 7 8 8 7 7 6 6 6 6 7 7 8 9 9 8 8 7 7 7 8 9 9 9 8 6 5
14 13 12 12 11 10 10 11 12 12 12 11 10 10 10 9 8 6 5 6 6 6 7 8 8 9 9 8 8 8 7 7 8 9 10 11 11 11 10 10 9 8 8 8 8 8 8 7 5
15 15 14 14 14 13 13 14 15 16 16 15 14 13 13 13 13 11 9 9 9 9 9 10 10 9 9 9 9 9 9 9 8 9 11 12 13 13 12 12 11 10 10 9 8 7 7 7 5
15 16 16 16 16 16 18 18 18 20 21 21 20 19 17 16 17 16 14 13 12 12 12 12 12 11 11 10 10 10 10 10 10 10 11 13 14 15 14 14 14 13 12 11 10 9 8 7 6
16 17 18 19 20 22 22 22 21 22 24 25 25 24 22 21 20 20 19 18 17 15 15 14 14 14 13 13 12 12 12 12 12 12 12 13 15 16 16 16 16 15 15 14 13 11 10 9 9
18 20 21 22 24 26 25 25 25 26 26 27 27 28 27 26 25 24 23 21 20 20 18 17 16 16 16 16 15 15 15 15 15 15 15 15 15 16 17 17 17 17 17 16 16 14 13 12 11
21 22 23 25 27 27 27 27 27 28 28 29 30 30 30 29 28 28 26 25 24 23 22 21 20 19 19 19 18 18 18 17 18 17 17 17 16 17 17 18 18 19 19 18 18 17 16 15 13
23 24 25 27 29 29 29 28 28 29 30 31 32 33 33 33 32 31 30 29 28 26 25 24 24 23 22 22 21 20 20 20 20 20 19 19 18 18 19 19 19 20 20 20 19 20 19 18 17
25 26 27 28 29 29 30 30 31 32 32 33 34 36 36 35 35 34 33 32 31 30 29 28 27 26 25 24 23 23 23 23 23 23 22 22 21 20 20 20 20 21 21 21 21 21 22 21 20
24 25 27 28 28 29 30 32 33 36 37 38 38 38 37 37 36 36 36 35 35 34 33 32 31 30 29 28 27 26 26 27 27 27 26 25 24 23 22 22 21 21 21 21 21 21 22 23 23
22 23 24 26 27 29 31 33 35 38 42 42 43 42 41 40 39 39 39 38 38 38 38 38 36 35 33 32 31 30 30 30 31 30 30 29 28 26 25 24 23 23 22 21 22 23 23 24 25
21 22 23 24 27 28 31 33 36 38 41 43 45 46 46 44 42 41 40 40 40 41 41 41 40 39 38 36 34 34 34 33 33 33 33 33 32 29 27 26 25 24 24 23 22 23 24 25 26
21 22 23 24 26 29 32 34 37 39 41 43 44 46 47 47 44 43 42 42 42 42 43 43 43 42 41 40 38 36 35 35 34 35 35 35 32 30 28 27 25 24 24 24 23 22 23 24 26
21 23 24 24 25 28 30 33 35 37 39 41 42 44 44 44 44 43 41 42 43 42 42 42 42 42 41 40 38 37 35 35 35 35 34 34 33 31 30 29 28 26 25 25 24 23 24 25 26
21 22 22 23 25 27 29 31 31 31 34 39 41 42 42 42 42 41 39 38 39 40 41 41 41 41 40 39 38 36 35 34 34 34 34 34 32 32 32 30 29 27 26 26 26 25 25 25 26
21 22 22 22 23 23 24 25 26 26 28 30 32 34 35 35 35 35 35 34 35 36 38 38 39 39 39 39 37 36 35 34 34 34 34 35 34 33 32 31 31 29 28 28 25 25 26 26 27
20 21 20 20 20 20 21 20 21 22 22 23 25 26 28 28 28 29 30 32 32 33 34 36 36 37 37 36 36 36 35 35 35 36 35 35 35 35 34 33 32 32 31 30 29 27 26 28 28
18 18 17 16 16 16 16 16 17 19 20 20 20 20 22 23 25 26 26 27 29 30 32 33 34 35 35 36 36 36 36 36 36 36 36 37 37 37 35 34 34 34 31 29 29 29 29 29 29
17 17 16 15 14 14 14 13 13 16 16 16 15 15 15 16 17 18 19 21 23 25 28 31 32 33 33 34 35 36 36 36 36 36 36 36 37 37 36 35 34 32 29 28 29 30 30 30 30
17 17 16 15 14 13 13 12 12 12 14 14 13 13 12 11 11 11 12 13 16 20 23 26 28 30 31 32 32 33 33 33 34 34 34 34 34 35 35 34 33 31 30 30 30 30 29 30 30
17 18 16 14 14 14 13 13 14 15 15 14 12 11 10 8 8 6 7 8 9 12 15 17 20 22 24 25 26 27 28 28 28 29 28 28 28 28 29 28 27 27 26 27 27 29 30 30 30
18 18 17 15 15 15 14 15 15 15 15 15 14 12 11 10 8 6 5 4 2 3 5 7 9 11 13 15 16 17 18 19 19 20 21 21 21 22 22 22 22 23 23 24 24 25 25 24 24
Wind_Direction
97 95 87 67 50 20 349 27 43 51 57 59 53 46 51 55 67 90 104 113 111 110 112 114 108 99 91 84 78 73 68 64 62 60 59 60 61 61 62 68 75 84 97 115 136 160 179 196 203
68 63 50 335 302 276 318 19 44 49 54 61 55 43 45 51 54 74 108 127 124 120 121 124 123 114 103 92 85 77 69 65 62 60 58 58 58 58 57 59 63 69 77 94 127 158 184 201 206
27 27 356 298 271 274 311 10 46 54 47 50 47 39 41 46 39 61 108 139 137 133 130 133 135 132 122 107 94 82 71 64 61 59 57 55 55 55 55 55 55 57 59 61 89 169 205 217 219
33 9 319 291 255 259 313 21 52 60 51 41 37 32 39 40 36 44 105 147 157 151 144 141 144 147 143 131 114 94 73 61 56 55 53 52 52 52 52 52 51 50 50 46 38 269 237 241 238
52 319 300 279 235 242 315 23 57 62 45 32 28 22 32 40 33 15 123 175 185 182 170 161 156 157 158 155 145 124 76 48 42 42 42 44 47 48 47 46 44 41 38 32 24 359 291 271 256
219 273 278 272 268 299 356 14 37 74 61 24 8 12 25 31 25 6 311 207 210 212 207 200 187 175 171 170 171 180 230 5 13 15 16 22 31 37 39 38 35 32 29 25 20 16 8 353 328
219 239 268 276 282 284 295 324 335 13 39 1 344 352 6 11 15 357 329 280 236 232 231 228 227 217 205 203 211 230 259 306 329 339 340 344 355 8 17 22 23 22 21 20 20 21 24 28 45
228 233 248 266 271 270 279 290 296 307 313 315 317 326 326 329 350 345 323 297 252 241 242 240 243 244 241 240 245 256 271 289 304 313 316 318 324 333 342 353 360 4 7 12 16 20 26 36 51
237 236 240 256 263 262 271 281 288 297 302 304 299 297 296 293 291 297 303 293 268 248 247 248 250 252 253 255 261 267 277 286 293 298 301 303 307 311 315 321 331 340 349 358 7 15 20 29 46
246 245 248 255 256 254 263 276 285 291 292 292 289 284 282 279 275 269 270 278 275 262 253 250 251 254 255 260 266 271 277 283 288 290 292 294 298 301 302 304 306 315 326 338 348 359 8 16 30
255 255 257 259 260 260 267 272 279 283 283 282 282 279 278 278 275 269 264 264 270 271 267 260 254 252 253 254 259 266 271 275 280 283 285 287 291 293 293 294 295 298 305 314 321 329 341 354 3
259 259 260 262 260 264 270 272 275 279 282 281 279 278 276 275 274 272 268 264 262 263 266 267 264 261 260 259 258 261 264 267 270 275 278 282 286 288 288 289 290 290 291 294 299 305 312 321 328
258 261 262 263 264 268 270 271 272 274 276 277 279 278 275 272 270 269 268 264 260 259 258 259 261 260 261 262 262 262 263 265 268 271 274 278 282 284 284 284 285 284 283 283 285 289 293 299 303
258 261 263 263 264 266 269 271 271 272 273 275 276 277 275 272 269 266 264 261 259 257 256 254 257 258 259 260 263 266 267 268 270 272 272 274 276 278 279 279 278 278 277 276 276 277 281 286 290
263 264 264 264 265 267 270 271 271 271 271 271 271 271 271 270 268 266 265 262 260 258 255 253 253 254 257 260 262 266 268 270 272 273 273 272 273 274 275 276 276 276 275 275 274 275 275 277 277
271 271 271 271 271 271 271 271 269 269 268 268 268 267 266 266 265 264 263 262 261 259 257 256 253 252 253 256 260 264 268 270 271 272 272 272 272 271 270 270 271 273 274 274 272 271 270 270 271
276 276 275 274 274 274 272 270 268 266 266 265 264 262 261 261 261 261 261 261 261 260 258 258 258 256 255 255 256 259 264 267 268 269 270 270 271 270 269 267 267 266 268 269 269 268 267 267 268
280 280 280 280 279 278 274 270 269 267 266 265 263 260 261 260 258 258 259 261 262 261 260 260 259 259 259 259 260 259 262 264 265 266 266 266 266 267 266 265 266 265 264 264 266 267 266 265 266
283 283 284 284 284 281 276 274 273 271 268 267 264 261 261 262 261 260 261 261 261 261 261 261 261 261 260 259 260 260 261 263 264 266 268 266 263 263 262 262 264 265 264 265 266 267 266 266 264
294 294 293 290 288 285 280 278 276 273 270 267 265 264 265 265 263 261 261 260 260 261 261 261 261 261 261 260 259 258 259 260 262 263 265 266 263 259 260 261 261 264 265 265 266 269 267 266 263
302 300 296 292 288 285 284 281 279 276 273 270 267 267 266 265 264 262 260 257 257 258 259 259 260 260 260 260 261 260 259 260 262 266 264 264 263 257 257 260 260 262 264 265 265 268 267 266 265
303 302 299 294 291 289 288 285 282 277 272 268 266 266 264 264 262 260 258 257 256 256 256 256 257 258 258 258 259 259 260 260 261 264 264 265 265 263 259 259 260 261 262 264 266 266 266 265 265
307 306 303 299 296 294 293 289 286 281 273 269 268 267 264 264 263 260 257 254 254 253 252 252 253 254 256 256 257 257 258 258 260 262 263 265 266 265 261 260 259 261 262 263 263 265 263 265 265
315 313 311 308 306 303 301 296 293 288 280 275 272 270 268 266 263 261 256 253 252 250 248 248 248 250 252 254 255 256 257 259 260 262 264 265 267 268 266 262 261 262 264 262 262 265 264 265 265
325 323 320 317 317 315 312 306 301 299 295 287 280 274 271 267 268 265 259 254 249 247 246 246 246 247 249 251 253 255 258 260 262 264 266 268 268 267 269 265 263 263 264 263 261 263 265 265 263
335 335 334 331 329 330 328 321 313 312 309 304 299 291 283 277 275 271 265 261 254 250 248 247 248 248 249 251 252 255 259 262 264 265 267 266 265 263 265 267 262 262 262 260 260 262 265 264 261
353 352 349 347 346 347 348 343 335 328 321 317 315 315 305 293 288 283 273 266 258 254 253 251 251 252 252 253 255 258 261 264 266 266 267 267 264 263 264 264 262 263 261 262 263 264 266 262 260
3 2 2 3 2 360 359 359 356 351 348 346 335 327 326 316 304 297 285 274 263 257 255 255 255 256 257 258 259 261 263 265 265 266 267 267 266 264 263 261 262 262 262 263 265 266 266 262 258
11 10 11 10 9 13 17 17 17 17 17 13 6 354 346 340 331 314 294 286 273 263 259 257 256 256 257 259 261 263 264 266 267 267 267 267 265 263 260 258 259 260 263 263 264 265 265 262 260
18 18 19 21 22 24 24 28 28 26 26 27 28 25 19 10 2 356 333 335 320 285 266 264 264 259 257 259 263 266 266 266 267 267 265 263 262 261 258 256 257 259 259 260 261 261 259 257 256
Height
5923 5923 5923 5924 5925 5924 5923 5923 5922 5923 5923 5922 5921 5921 5921 5921 5921 5922 5920 5919 5919 5919 5919 5919 5919 5919 5919 5918 5918 5917 5916 5915 5914 5913 5911 5910 5909 5908 5907 5907 5907 5906 5906 5906 5905 5905 5905 5905 5905
5924 5924 5925 5926 5925 5924 5924 5924 5923 5923 5923 5923 5922 5922 5921 5921 5920 5920 5919 5919 5920 5920 5920 5920 5920 5920 5920 5920 5920 5919 5918 5917 5916 5915 5913 5912 5911 5909 5908 5908 5907 5907 5906 5906 5906 5905 5905 5905 5905
5925 5925 5926 5926 5925 5925 5925 5924 5924 5924 5923 5923 5923 5923 5922 5922 5920 5920 5920 5920 5920 5921 5921 5921 5921 5921 5922 5922 5921 5921 5920 5919 5918 5916 5915 5914 5912 5911 5910 5909 5908 5907 5906 5906 5905 5905 5905 5905 5905
5926 5927 5927 5927 5926 5925 5925 5925 5925 5925 5925 5924 5923 5923 5923 5923 5921 5920 5920 5920 5921 5921 5921 5921 5922 5922 5922 5923 5922 5922 5921 5920 5919 5918 5917 5915 5914 5913 5911 5910 5909 5908 5907 5906 5905 5905 5904 5904 5904
5927 5927 5928 5926 5926 5925 5924 5924 5925 5926 5925 5924 5924 5923 5923 5923 5921 5920 5920 5920 5921 5921 5921 5922 5922 5922 5923 5923 5923 5923 5922 5921 5920 5919 5918 5917 5915 5914 5913 5911 5910 5909 5907 5906 5905 5904 5904 5904 5903
5926 5927 5927 5926 5925 5924 5924 5924 5925 5926 5925 5924 5924 5924 5923 5923 5922 5920 5920 5920 5921 5921 5921 5922 5922 5922 5923 5923 5923 5923 5922 5922 5921 5920 5919 5918 5917 5915 5914 5912 5911 5910 5908 5907 5906 5905 5904 5904 5903
5927 5926 5926 5925 5925 5924 5924 5924 5924 5925 5925 5925 5924 5924 5923 5923 5922 5920 5920 5920 5920 5920 5921 5921 5922 5922 5922 5923 5923 5923 5922 5922 5921 5920 5919 5918 5917 5916 5915 5913 5912 5911 5909 5908 5907 5906 5905 5904 5903
5925 5926 5925 5924 5924 5924 5923 5923 5923 5924 5924 5925 5924 5923 5923 5923 5922 5920 5919 5920 5920 5920 5920 5921 5921 5921 5922 5922 5922 5922 5922 5922 5921 5920 5919 5918 5917 5916 5915 5914 5912 5911 5910 5909 5908 5906 5905 5904 5904
5925 5926 5924 5924 5923 5923 5922 5922 5922 5923 5923 5923 5923 5923 5923 5922 5922 5921 5920 5919 5919 5919 5919 5920 5920 5920 5921 5921 5921 5921 5921 5921 5921 5920 5919 5918 5917 5916 5915 5914 5913 5912 5911 5909 5908 5907 5906 5905 5905
5924 5924 5924 5923 5923 5922 5921 5921 5921 5921 5922 5922 5922 5922 5921 5920 5921 5921 5920 5919 5918 5918 5918 5918 5918 5919 5919 5919 5919 5920 5920 5920 5919 5919 5918 5917 5916 5916 5915 5914 5913 5912 5911 5910 5909 5908 5907 5906 5905
5922 5922 5922 5921 5921 5920 5920 5919 5919 5919 5919 5919 5919 5919 5919 5918 5918 5919 5919 5919 5918 5917 5916 5916 5917 5917 5917 5917 5917 5917 5918 5918 5917 5917 5916 5915 5915 5914 5914 5913 5912 5911 5910 5909 5908 5908 5907 5907 5906
5920 5920 5919 5919 5918 5918 5917 5917 5917 5916 5916 5915 5916 5916 5916 5916 5915 5915 5916 5917 5917 5916 5915 5914 5914 5914 5914 5914 5915 5915 5915 5915 5915 5915 5914 5913 5912 5912 5911 5911 5910 5909 5909 5908 5908 5907 5907 5906 5906
5917 5916 5916 5915 5914 5913 5913 5913 5913 5912 5911 5910 5910 5911 5912 5912 5912 5912 5912 5913 5914 5914 5914 5913 5912 5911 5911 5912 5912 5912 5912 5912 5912 5912 5911 5911 5910 5909 5908 5908 5907 5907 5907 5907 5906 5906 5905 5905 5905
5913 5912 5912 5911 5909 5908 5908 5909 5909 5907 5907 5906 5905 5905 5905 5906 5906 5906 5907 5907 5908 5909 5910 5910 5910 5909 5909 5909 5908 5908 5908 5908 5908 5908 5908 5907 5907 5906 5905 5904 5904 5904 5904 5904 5904 5903 5903 5903 5903
5909 5908 5907 5905 5904 5904 5904 5904 5903 5902 5901 5901 5900 5899 5898 5898 5899 5900 5900 5901 5902 5903 5904 5904 5905 5905 5905 5904 5904 5904 5904 5904 5904 5903 5903 5903 5903 5902 5901 5900 5900 5899 5899 5900 5899 5899 5900 5900 5901
5904 5903 5902 5900 5899 5898 5899 5898 5897 5895 5894 5893 5892 5891 5891 5891 5891 5892 5892 5893 5894 5895 5896 5897 5898 5898 5899 5899 5899 5899 5899 5899 5899 5898 5898 5898 5898 5898 5897 5897 5896 5895 5894 5895 5895 5895 5896 5896 5897
5898 5897 5896 5895 5892 5892 5891 5890 5888 5887 5885 5884 5883 5882 5883 5882 5882 5883 5884 5885 5886 5887 5888 5889 5890 5891 5892 5892 5893 5893 5893 5893 5893 5893 5893 5892 5892 5892 5892 5892 5892 5891 5891 5891 5891 5891 5891 5892 5892
5893 5891 5889 5887 5885 5884 5883 5881 5879 5877 5875 5874 5874 5874 5873 5873 5873 5874 5875 5876 5877 5878 5879 5880 5882 5883 5884 5885 5886 5886 5886 5886 5886 5886 5887 5887 5886 5886 5886 5886 5886 5886 5886 5886 5886 5886 5886 5886 5887
5886 5884 5882 5880 5878 5876 5874 5872 5870 5868 5866 5864 5863 5862 5862 5862 5864 5865 5866 5866 5867 5868 5870 5871 5873 5874 5875 5877 5878 5879 5879 5879 5879 5879 5879 5880 5880 5879 5879 5880 5880 5880 5880 5880 5880 5880 5880 5881 5881
5880 5878 5876 5873 5870 5868 5865 5863 5860 5858 5855 5854 5852 5851 5851 5851 5852 5853 5855 5857 5857 5858 5859 5861 5862 5864 5865 5867 5868 5869 5870 5870 5871 5871 5871 5871 5871 5872 5872 5873 5874 5874 5874 5874 5874 5874 5874 5874 5875
5874 5872 5869 5867 5864 5860 5856 5854 5850 5847 5844 5843 5841 5840 5839 5839 5840 5842 5844 5845 5846 5847 5849 5850 5852 5853 5855 5857 5858 5859 5861 5862 5863 5862 5862 5862 5862 5863 5865 5866 5866 5867 5867 5867 5867 5868 5868 5868 5868
5869 5865 5862 5859 5856 5853 5849 5844 5841 5837 5834 5831 5829 5827 5827 5827 5828 5829 5831 5833 5835 5837 5838 5840 5841 5843 5845 5847 5849 5850 5852 5853 5854 5853 5853 5854 5854 5855 5856 5857 5858 5859 5859 5859 5860 5860 5861 5861 5861
5863 5859 5856 5852 5848 5845 5840 5835 5831 5827 5824 5820 5818 5816 5816 5815 5816 5818 5819 5821 5823 5826 5827 5830 5832 5834 5836 5837 5839 5841 5843 5845 5845 5845 5845 5846 5846 5846 5847 5849 5850 5850 5851 5851 5852 5852 5853 5853 5854
5857 5853 5849 5846 5841 5837 5832 5827 5822 5818 5814 5812 5809 5807 5806 5806 5807 5808 5809 5811 5813 5816 5818 5821 5823 5825 5827 5829 5830 5832 5834 5835 5836 5837 5837 5837 5838 5837 5837 5839 5841 5842 5843 5843 5844 5844 5845 5846 5846
5853 5849 5844 5840 5835 5831 5825 5820 5816 5811 5807 5804 5802 5800 5798 5798 5798 5799 5800 5802 5804 5807 5809 5812 5814 5816 5818 5820 5822 5824 5825 5826 5828 5828 5829 5829 5830 5830 5829 5830 5831 5833 5834 5834 5835 5836 5837 5837 5838
5849 5845 5841 5836 5830 5826 5821 5816 5812 5807 5803 5799 5796 5794 5792 5791 5791 5792 5793 5795 5797 5799 5801 5804 5806 5809 5811 5812 5814 5815 5816 5818 5819 5819 5820 5820 5820 5820 5821 5821 5822 5823 5824 5825 5826 5827 5828 5829 5829
5845 5840 5837 5832 5827 5823 5819 5814 5810 5805 5801 5797 5794 5791 5788 5786 5786 5786 5787 5788 5790 5792 5794 5797 5799 5801 5803 5805 5806 5807 5808 5809 5810 5810 5810 5810 5810 5811 5812 5812 5813 5814 5815 5817 5818 5818 5819 5820 5820
5844 5839 5834 5830 5825 5821 5818 5813 5810 5805 5800 5796 5792 5789 5787 5784 5783 5783 5783 5784 5785 5786 5788 5790 5792 5794 5796 5797 5798 5799 5800 5800 5801 5801 5801 5801 5801 5802 5803 5804 5805 5806 5807 5809 5809 5810 5811 5811 5812
5844 5839 5834 5829 5825 5821 5817 5816 5809 5805 5801 5797 5793 5789 5787 5784 5783 5782 5781 5782 5782 5783 5784 5785 5787 5788 5789 5791 5791 5792 5792 5793 5793 5793 5793 5793 5793 5793 5794 5795 5796 5798 5799 5800 5801 5802 5803 5804 5804
5844 5839 5834 5830 5826 5822 5818 5817 5810 5806 5802 5798 5795 5791 5788 5786 5784 5782 5782 5781 5781 5781 5782 5783 5783 5784 5785 5786 5786 5787 5787 5786 5786 5786 5787 5787 5787 5787 5788 5789 5790 5791 5792 5793 5794 5795 5795 5796 5797